Wind_Speed
40 36 31 32 26 21 23 24 24 24 25 23 21 20 18 15 15 15 15 15 16 20 23 25 26 28 30 32 36 38 40 42 44 43 46 46 44 38 32 28 25 30 36
47 44 38 35 36 37 35 26 28 28 28 28 26 25 23 22 21 20 20 20 20 22 25 27 28 30 32 33 36 40 41 44 45 47 45 46 47 44 36 32 31 33 35
38 40 39 39 35 29 27 27 30 32 30 30 30 28 27 26 25 24 24 24 24 25 26 28 31 32 34 36 37 40 43 44 47 48 47 48 48 46 39 34 34 33 36
35 42 45 43 39 36 32 35 33 35 35 34 33 32 31 30 29 29 28 27 27 28 29 29 32 34 35 37 39 40 43 45 48 51 49 49 49 48 44 34 33 36 40
41 50 46 46 47 49 46 45 38 38 40 39 36 35 35 34 34 31 30 30 31 31 31 31 32 35 37 39 40 42 43 46 48 51 51 50 50 49 46 36 33 37 37
40 47 53 54 51 51 49 42 39 41 41 43 43 41 38 39 38 35 34 33 33 34 34 34 35 37 39 40 41 45 44 46 47 50 50 50 50 49 46 39 34 34 36
43 49 53 57 60 54 47 43 44 45 44 44 47 46 44 43 41 39 39 39 39 39 39 40 40 41 41 41 42 46 46 41 40 44 48 51 50 50 47 42 33 34 36
52 52 51 50 50 50 47 46 46 45 46 46 47 50 49 48 47 45 43 41 42 44 44 45 45 45 44 43 43 46 47 41 36 37 39 43 46 45 45 46 32 34 39
57 53 52 49 49 48 51 49 46 46 46 46 47 49 53 52 50 49 48 45 45 47 46 46 45 48 48 44 42 43 47 43 35 36 35 38 42 42 44 46 34 34 37
55 52 51 50 48 48 50 49 45 47 50 48 47 49 52 54 55 53 51 49 46 49 49 47 47 47 49 45 42 42 44 41 36 36 34 34 37 39 41 39 34 35 37
68 62 58 55 49 47 47 48 47 48 49 50 50 51 51 54 57 55 54 51 49 49 48 49 48 47 43 41 34 34 33 34 32 33 34 34 36 36 36 43 41 38 39
72 65 65 61 56 51 48 51 51 53 53 53 51 52 54 55 56 57 56 53 53 51 50 50 47 47 41 36 31 30 31 30 29 32 33 34 34 32 39 41 44 43 43
75 69 65 66 63 58 51 51 52 54 57 50 50 53 53 53 55 56 56 53 48 47 48 48 46 46 38 31 28 30 32 33 31 30 33 33 35 36 37 38 43 47 47
78 72 71 70 68 63 55 51 53 56 58 53 56 57 53 53 53 53 50 46 43 39 39 39 40 38 35 28 26 28 35 37 38 36 35 36 37 39 37 36 41 43 45
81 77 77 71 71 68 61 56 52 52 55 54 54 57 56 56 55 51 50 47 41 40 39 38 36 30 28 28 30 33 38 40 39 43 39 37 41 40 40 37 37 41 44
88 84 78 78 75 70 65 62 58 53 51 52 54 53 53 53 52 50 47 45 44 45 42 39 35 34 32 27 32 38 39 41 41 44 41 38 37 40 40 42 37 38 42
95 91 81 78 80 76 69 67 62 58 53 55 50 49 49 48 47 45 45 46 43 41 41 37 38 37 36 31 34 33 49 40 39 41 33 31 35 35 37 44 45 39 43
91 92 92 87 86 81 75 72 69 65 59 54 55 55 53 51 49 49 48 45 43 39 37 37 36 37 35 39 40 40 44 42 45 38 33 31 34 30 33 47 47 45 44
90 88 88 92 93 90 88 81 76 72 68 60 59 59 60 57 54 48 47 47 45 39 38 40 37 42 45 45 44 42 43 45 46 43 36 36 40 35 36 30 41 42 48
95 92 91 92 94 93 92 88 81 78 75 70 65 62 62 59 56 56 54 52 46 42 43 45 44 41 44 43 43 42 39 42 48 47 45 43 41 40 42 45 49 52 47
103 99 95 95 96 97 89 88 90 84 80 78 73 67 65 66 57 54 61 59 55 50 46 48 50 48 49 49 46 48 48 47 51 46 42 44 39 45 52 51 49 49 45
109 106 102 101 99 99 99 96 94 97 91 85 82 77 73 68 67 63 62 65 63 59 55 53 51 51 55 56 55 54 57 50 48 39 43 44 42 50 54 52 48 50 47
114 111 109 107 106 104 102 99 99 98 98 92 88 85 81 76 71 66 63 64 59 61 62 61 60 60 61 60 62 59 58 56 54 51 51 54 53 55 58 60 56 54 52
118 117 115 113 112 109 108 104 102 98 98 100 95 91 88 85 79 75 73 68 68 65 66 68 70 69 70 70 66 62 60 59 60 58 56 58 59 59 61 62 62 61 62
121 120 120 120 117 115 114 110 107 105 102 101 103 99 95 92 88 83 79 77 76 75 75 70 71 74 76 78 76 72 66 66 62 61 61 63 62 63 65 65 66 65 65
118 123 124 122 121 120 119 117 113 110 107 106 104 104 103 99 95 91 87 83 82 80 78 77 79 78 77 81 81 81 76 75 74 73 70 69 68 66 67 68 69 70 71
Wind_Direction
286 286 278 259 267 270 286 282 263 259 257 259 260 268 271 275 283 293 299 308 316 328 337 342 346 349 353 356 356 1 359 -0 359 359 353 355 358 0 3 2 358 1 357
287 278 278 260 265 271 278 276 267 256 256 256 258 261 265 271 279 285 290 296 304 313 321 328 335 340 343 346 351 353 356 356 355 356 353 350 353 359 355 360 360 8 0
279 272 270 264 270 264 265 281 269 258 252 255 256 259 263 269 273 278 284 290 298 304 309 315 321 329 334 337 343 348 351 351 350 352 353 350 349 353 353 356 358 4 357
267 266 268 265 262 260 273 276 266 256 253 251 254 257 258 261 267 275 281 285 290 293 298 305 311 317 324 328 336 341 343 345 347 348 351 349 348 348 352 348 358 359 355
257 256 263 262 264 265 267 270 267 258 253 252 252 253 258 262 264 268 274 281 285 287 291 295 301 307 314 322 329 333 337 339 344 344 344 347 347 348 349 342 348 351 351
252 254 253 260 262 266 265 258 263 257 254 253 251 252 253 257 261 266 272 275 279 283 286 289 295 301 309 315 321 325 331 334 340 341 340 342 345 344 348 345 341 345 346
243 248 247 251 255 260 255 252 254 253 253 254 254 253 253 253 258 261 264 270 275 279 283 287 292 297 303 309 315 319 324 328 335 337 335 338 342 342 343 342 334 341 341
247 251 256 264 259 249 251 253 252 254 254 253 257 257 256 255 257 259 262 267 272 276 281 286 290 295 299 304 310 313 316 323 330 333 331 335 338 341 341 342 333 337 340
253 251 255 265 262 252 247 250 252 253 253 252 256 259 259 262 261 260 260 262 267 273 277 283 289 292 295 298 302 306 309 317 326 329 328 332 338 346 344 342 336 338 341
252 253 255 258 263 257 251 250 254 253 254 252 252 254 258 260 262 264 265 262 262 268 275 281 284 288 291 295 298 301 303 309 317 322 327 327 334 346 354 352 347 344 345
251 254 254 257 259 256 253 251 251 250 250 251 253 254 258 260 263 264 265 266 264 266 270 275 280 286 291 294 296 295 297 304 310 312 320 324 331 335 347 351 357 357 347
251 251 251 252 253 256 251 250 251 255 254 253 255 256 259 263 266 269 271 269 267 265 269 273 278 283 289 289 290 293 297 303 302 306 312 321 322 329 331 339 347 353 353
248 249 249 252 253 253 257 256 252 250 249 252 256 255 259 261 264 267 268 267 268 268 267 269 273 279 283 285 288 296 303 303 302 302 306 310 319 318 324 325 332 346 352
241 248 253 249 249 251 253 257 255 252 251 250 251 255 259 260 261 264 264 263 263 261 258 264 269 271 278 283 291 305 314 313 314 301 306 310 309 316 317 326 331 343 349
239 242 247 248 247 250 252 254 253 252 254 251 250 256 263 262 262 264 264 263 262 259 260 263 262 266 272 279 297 307 313 310 308 307 305 304 302 312 322 323 329 338 344
241 241 241 248 249 245 248 250 253 254 252 252 255 256 255 257 258 260 262 264 264 262 260 258 255 261 267 279 287 294 294 297 300 303 302 301 300 310 313 325 315 327 334
239 243 244 245 246 246 248 249 249 251 254 251 253 253 251 254 256 257 257 256 255 256 257 254 255 254 253 262 271 266 276 283 296 306 297 297 301 305 316 317 317 311 323
239 240 241 243 245 246 249 250 251 250 250 252 249 249 250 252 253 256 258 260 258 252 248 249 254 249 255 264 260 263 275 287 294 287 285 287 286 299 320 314 308 306 313
243 238 240 238 243 247 249 248 249 250 250 249 250 249 249 249 253 257 259 257 256 251 247 251 252 256 256 258 262 272 279 276 275 273 271 274 274 281 282 291 292 298 301
240 239 238 237 241 245 249 250 248 249 249 249 249 249 250 251 252 253 253 254 253 252 247 251 252 251 252 254 255 254 258 271 271 271 267 273 279 283 280 288 296 293 292
241 241 239 237 238 238 242 247 251 248 250 250 249 248 246 248 247 248 253 254 254 254 250 250 249 250 252 248 253 250 256 266 272 272 271 276 277 275 281 289 295 297 282
240 240 239 240 238 239 240 241 245 250 248 248 249 248 247 246 245 242 246 251 251 251 252 249 244 250 253 252 255 251 255 260 269 262 263 272 269 270 279 286 295 296 282
240 240 240 240 241 240 240 241 241 244 248 247 246 247 246 245 244 244 243 243 242 242 247 248 242 248 251 249 250 254 259 264 271 271 266 270 273 279 282 285 288 293 293
241 241 240 239 240 240 241 241 241 240 244 248 246 245 247 246 244 243 242 240 239 238 240 243 244 247 249 247 252 254 254 260 265 265 266 269 273 278 279 281 282 284 288
239 241 241 240 239 239 241 241 241 241 240 242 247 246 244 245 246 245 242 241 241 242 243 243 244 246 249 248 253 255 254 258 259 261 263 267 271 273 277 279 281 284 287
235 236 238 239 240 239 239 240 241 241 241 240 241 245 247 245 244 244 244 242 242 243 244 243 243 245 247 250 251 255 256 256 257 259 264 265 266 272 277 279 281 283 286
Height
10991 10994 10997 10999 10999 11000 11001 11002 11002 11004 11005 11006 11007 11007 11008 11007 11006 11005 11005 11003 11001 11000 10998 10995 10992 10988 10985 10983 10979 10975 10969 10964 10958 10952 10943 10936 10929 10923 10916 10908 10902 10894 10889
10979 10981 10986 10989 10991 10992 10996 10996 10996 10997 10999 11001 11003 11003 11003 11004 11003 11002 11002 11001 10999 10997 10995 10992 10990 10987 10984 10981 10978 10972 10967 10961 10955 10949 10942 10933 10926 10920 10914 10907 10900 10892 10887
10971 10972 10976 10980 10982 10985 10988 10990 10990 10990 10992 10993 10995 10997 10998 10999 10999 10999 10998 10998 10997 10995 10992 10989 10986 10984 10981 10978 10975 10970 10964 10960 10955 10949 10940 10932 10924 10917 10911 10904 10898 10890 10887
10964 10965 10966 10970 10974 10978 10981 10983 10983 10983 10984 10986 10988 10990 10991 10992 10993 10993 10993 10993 10992 10990 10988 10986 10983 10980 10978 10975 10972 10968 10964 10959 10953 10945 10939 10930 10922 10914 10908 10902 10896 10889 10884
10958 10958 10960 10961 10964 10967 10970 10974 10975 10976 10976 10978 10980 10981 10983 10984 10985 10986 10987 10987 10986 10984 10982 10981 10980 10977 10974 10971 10968 10965 10961 10955 10950 10941 10934 10928 10920 10913 10907 10899 10893 10887 10881
10955 10953 10953 10953 10955 10957 10960 10964 10967 10967 10968 10971 10971 10973 10975 10975 10977 10979 10979 10979 10978 10977 10977 10976 10975 10973 10971 10968 10964 10959 10957 10952 10946 10938 10930 10925 10918 10911 10904 10896 10891 10885 10881
10946 10945 10943 10944 10945 10947 10949 10952 10954 10956 10958 10960 10962 10963 10964 10965 10967 10970 10970 10971 10970 10970 10969 10969 10969 10967 10965 10962 10960 10955 10951 10948 10945 10939 10930 10921 10914 10907 10900 10895 10889 10882 10876
10932 10934 10933 10932 10934 10936 10938 10939 10942 10945 10949 10950 10952 10955 10955 10956 10956 10959 10961 10963 10963 10962 10962 10962 10961 10959 10958 10956 10955 10950 10944 10941 10939 10935 10929 10922 10914 10907 10900 10893 10886 10880 10873
10919 10922 10923 10922 10922 10925 10925 10928 10931 10936 10939 10940 10943 10945 10947 10946 10947 10948 10950 10954 10954 10953 10953 10953 10953 10951 10948 10949 10949 10945 10938 10933 10932 10927 10923 10918 10911 10904 10897 10889 10882 10875 10869
10903 10908 10910 10912 10910 10913 10915 10918 10922 10926 10927 10929 10931 10934 10937 10936 10936 10939 10940 10943 10946 10943 10943 10944 10943 10942 10939 10938 10939 10938 10933 10927 10924 10921 10917 10913 10908 10901 10894 10886 10879 10872 10865
10889 10892 10895 10899 10903 10902 10904 10907 10909 10912 10915 10918 10920 10922 10924 10926 10924 10926 10928 10933 10935 10935 10935 10933 10932 10932 10931 10928 10929 10927 10925 10922 10918 10915 10910 10905 10900 10895 10889 10885 10877 10868 10861
10870 10877 10882 10886 10890 10893 10894 10895 10899 10900 10903 10906 10910 10911 10912 10913 10914 10915 10917 10921 10922 10925 10925 10924 10923 10921 10923 10921 10920 10918 10917 10916 10913 10909 10905 10901 10896 10892 10886 10882 10876 10867 10858
10854 10860 10866 10870 10874 10877 10881 10881 10884 10887 10891 10892 10895 10896 10900 10900 10902 10902 10903 10907 10910 10915 10915 10915 10914 10912 10912 10912 10912 10911 10909 10907 10906 10904 10901 10896 10892 10887 10882 10877 10873 10866 10856
10839 10844 10848 10854 10859 10862 10868 10870 10872 10874 10877 10881 10882 10883 10886 10888 10888 10887 10889 10892 10895 10900 10902 10904 10905 10903 10902 10902 10901 10903 10903 10902 10900 10897 10893 10889 10886 10884 10878 10873 10868 10863 10855
10820 10829 10834 10838 10844 10848 10853 10857 10860 10862 10865 10868 10869 10870 10872 10873 10873 10876 10876 10878 10883 10886 10891 10895 10895 10894 10893 10892 10893 10894 10894 10892 10890 10888 10886 10882 10879 10877 10872 10867 10863 10858 10851
10798 10808 10817 10823 10828 10833 10837 10842 10846 10849 10851 10853 10855 10856 10857 10859 10860 10864 10866 10869 10870 10875 10879 10882 10885 10886 10886 10884 10882 10882 10886 10887 10884 10882 10878 10874 10871 10868 10865 10860 10856 10852 10846
10780 10788 10804 10808 10810 10816 10821 10826 10831 10835 10837 10840 10840 10843 10844 10847 10849 10852 10853 10854 10857 10861 10865 10869 10872 10874 10874 10873 10872 10868 10874 10877 10874 10873 10868 10864 10863 10860 10856 10852 10849 10845 10841
10765 10772 10781 10787 10789 10795 10803 10809 10813 10818 10821 10824 10827 10829 10831 10834 10836 10838 10841 10845 10846 10849 10854 10857 10857 10859 10861 10860 10859 10860 10864 10867 10867 10864 10859 10855 10853 10850 10848 10845 10841 10839 10834
10741 10751 10758 10766 10770 10774 10780 10790 10795 10800 10804 10809 10812 10815 10817 10820 10822 10825 10830 10833 10834 10838 10842 10844 10846 10846 10848 10850 10850 10851 10855 10855 10855 10851 10848 10846 10842 10839 10837 10833 10830 10831 10827
10717 10727 10735 10742 10748 10755 10759 10765 10775 10781 10786 10791 10796 10800 10802 10805 10808 10812 10815 10819 10821 10825 10828 10830 10831 10833 10834 10835 10837 10837 10839 10841 10840 10838 10839 10837 10835 10831 10827 10824 10823 10821 10818
10689 10700 10709 10717 10725 10733 10739 10744 10750 10759 10767 10772 10777 10782 10786 10789 10792 10796 10798 10803 10807 10811 10814 10815 10817 10820 10821 10821 10824 10825 10825 10825 10827 10830 10827 10825 10824 10819 10816 10815 10813 10811 10807
10663 10671 10681 10689 10698 10707 10715 10723 10728 10732 10742 10750 10755 10761 10765 10770 10774 10779 10781 10786 10790 10794 10797 10800 10802 10806 10806 10807 10809 10810 10808 10809 10812 10814 10813 10813 10810 10806 10805 10803 10803 10801 10797
10634 10644 10653 10661 10670 10679 10689 10697 10704 10709 10714 10724 10732 10737 10742 10748 10754 10759 10763 10767 10770 10773 10778 10782 10785 10789 10791 10790 10793 10793 10793 10796 10799 10801 10800 10799 10797 10796 10794 10792 10791 10790 10789
10600 10611 10621 10631 10639 10649 10659 10669 10676 10683 10690 10694 10704 10713 10720 10725 10732 10737 10742 10746 10751 10754 10757 10761 10765 10769 10771 10772 10775 10777 10779 10783 10785 10786 10786 10784 10784 10783 10781 10781 10781 10779 10777
10569 10577 10586 10596 10607 10617 10625 10636 10646 10654 10662 10669 10675 10684 10692 10700 10707 10713 10720 10725 10729 10734 10738 10742 10746 10750 10752 10756 10759 10762 10766 10767 10770 10771 10773 10771 10770 10770 10769 10765 10764 10764 10763
10525 10536 10546 10557 10570 10583 10593 10602 10613 10622 10632 10639 10647 10655 10663 10673 10681 10686 10693 10700 10706 10711 10717 10721 10725 10728 10731 10735 10740 10741 10747 10749 10752 10754 10755 10756 10756 10755 10754 10752 10750 10749 10747